{"data":{"norad_id":68684,"intl_designator":"2026-077Y","name":"STARLINK-37287","alt_names":[],"object_type":"PAYLOAD","status":"ACTIVE","operator":null,"country":"US","launch_date":"2026-04-11","launch_site_code":"AFWTR","launch_vehicle":null,"mission":null,"orbit_class":"UNKNOWN","rcs_meters":null,"size_class":null,"mass_kg":null,"dimensions":null,"purposes":["comms"],"wikipedia_slug":null,"has_3d_model":false,"image_url":null,"decayed_at":null,"tle_current":{"epoch":"2026-05-25T02:30:16.799040Z","epoch_age_seconds":59861,"freshness":"FRESH","line1":"1 68684U 26077Y   26145.10436110  .00003450  00000+0  10917-3 0  9990","line2":"2 68684  97.2870  16.7539 0001607  87.0073 273.1353 15.33440412  6879","mean_motion":15.33440412,"eccentricity":0.0001607,"inclination_deg":97.287,"raan_deg":16.7539,"arg_perigee_deg":87.0073,"mean_anomaly_deg":273.1353,"bstar":0.00010917,"rev_number":687,"period_min":93.90648562091,"perigee_km":464.45704357453,"apogee_km":466.65660676994,"semimajor_km":6843.6938251722,"source":"CELESTRAK","updated_at":"2026-05-25T13:38:21.996634Z"}}}